DW4063 Weather Reports


Display with metric or nautical units.
time (UTC)temp
F
wind
direction
speed
MPH
gust
MPH
rain 1hr
in
rain 24hr
in
rain mn
in
humidity
%
barometer
mb
20260507193026 58 204 3.0 18.0 0.00 0.00 0.00 54 1011.8
20260507191530 58 192 4.0 12.0 0.00 0.00 0.00 54 1012.2
20260507190005 57 202 3.0 10.0 0.00 0.00 0.00 52 1012.3
20260507184505 59 159 4.0 12.0 0.00 0.00 0.00 47 1012.3
20260507183006 59 238 4.0 13.0 0.00 0.00 0.00 46 1012.5
20260507180009 59 338 3.0 10.0 0.00 0.00 0.00 43 1012.6
20260507174506 59 290 4.0 10.0 0.00 0.00 0.00 38 1012.8
20260507173016 59 284 4.0 10.0 0.00 0.00 0.00 38 1013.1
20260507171506 58 242 4.0 9.0 0.00 0.00 0.00 39 1013.3
20260507170006 57 227 2.0 9.0 0.00 0.00 0.00 41 1013.7
20260507164510 57 240 2.0 7.0 0.00 0.00 0.00 42 1013.8
20260507163015 56 284 2.0 9.0 0.00 0.00 0.00 41 1014.0
20260507161517 55 237 3.0 7.0 0.00 0.00 0.00 41 1014.4
20260507160017 55 201 1.0 5.0 0.00 0.00 0.00 42 1014.6
20260507154513 54 234 2.0 6.0 0.00 0.00 0.00 41 1014.8
20260507153016 53 171 1.0 6.0 0.00 0.00 0.00 44 1015.0
20260507151513 52 237 1.0 6.0 0.00 0.00 0.00 43 1015.3
20260507150015 51 238 2.0 6.0 0.00 0.00 0.00 44 1015.4
20260507144523 51 185 1.0 5.0 0.00 0.00 0.00 48 1015.6
20260507143012 50 192 2.0 7.0 0.00 0.00 0.00 49 1015.9
20260507141513 49 225 2.0 4.0 0.00 0.00 0.00 50 1016.0
20260507140008 48 227 0.0 4.0 0.00 0.00 0.00 53 1015.9
20260507134515 47 227 1.0 5.0 0.00 0.00 0.00 55 1016.1
20260507133014 45 259 2.0 4.0 0.00 0.00 0.00 61 1016.2
20260507131517 44 200 0.0 3.0 0.00 0.00 0.00 69 1016.2
20260507130028 41 277 0.0 2.0 0.00 0.00 0.00 82 1016.4
20260507124517 39 335 0.0 0.0 0.00 0.00 0.00 91 1016.4
20260507123012 37 335 0.0 0.0 0.00 0.00 0.00 94 1016.2
20260507121520 34 335 0.0 0.0 0.00 0.00 0.00 93 1016.1
20260507120018 33 335 0.0 0.0 0.00 0.00 0.00 93 1016.0
20260507114517 31 335 0.0 0.0 0.00 0.00 0.00 93 1016.0
20260507113025 30 335 0.0 0.0 0.00 0.00 0.00 92 1015.9
20260507111516 30 335 0.0 0.0 0.00 0.00 0.00 92 1015.9
20260507110016 30 335 0.0 0.0 0.00 0.00 0.00 92 1015.8
20260507104520 30 335 0.0 0.0 0.00 0.00 0.00 91 1015.8
20260507103023 30 335 0.0 0.0 0.00 0.00 0.00 91 1016.0
20260507101522 30 335 0.0 0.0 0.00 0.00 0.00 91 1015.9
20260507100024 30 335 0.0 0.0 0.00 0.00 0.00 91 1015.8
20260507094524 30 335 0.0 0.0 0.00 0.00 0.00 91 1016.0
20260507093018 30 335 0.0 0.0 0.00 0.00 0.00 90 1015.9
20260507091524 31 0.0 0.0 0.00 0.00 0.00 90 1016.0
20260507090014 31 335 0.0 0.0 0.00 0.00 0.00 90 1016.1
20260507084513 31 335 0.0 0.0 0.00 0.00 0.00 89 1016.1
20260507083004 31 335 0.0 0.0 0.00 0.00 0.00 89 1016.0
20260507081530 31 335 0.0 0.0 0.00 0.00 0.00 89 1015.9
20260507080022 32 335 0.0 0.0 0.00 0.00 0.00 89 1015.9
20260507073013 32 335 0.0 0.0 0.00 0.00 0.00 88 1016.1
20260507071510 32 335 0.0 0.0 0.00 0.00 0.00 88 1016.2
20260507064525 33 335 0.0 0.0 0.00 0.00 0.00 87 1016.5
20260507063024 33 335 0.0 0.0 0.00 0.00 0.00 86 1016.5
20260507061519 33 335 0.0 0.0 0.00 0.00 0.00 86 1016.6
20260507060016 34 335 0.0 0.0 0.00 0.00 0.00 85 1016.5
20260507053012 34 335 0.0 0.0 0.00 0.00 0.00 84 1016.3
20260507051524 35 335 0.0 0.0 0.00 0.00 0.00 83 1016.5
20260507050034 35 335 0.0 0.0 0.00 0.00 0.00 82 1016.5
20260507044520 36 335 0.0 0.0 0.00 0.00 0.00 82 1016.6
20260507043017 36 335 0.0 0.0 0.00 0.00 0.00 81 1016.5
20260507041532 37 335 0.0 0.0 0.00 0.00 0.00 79 1016.5
20260507040011 37 335 0.0 0.0 0.00 0.00 0.00 78 1016.5
20260507034525 38 335 0.0 0.0 0.00 0.00 0.00 77 1016.4
20260507033022 38 335 0.0 0.0 0.00 0.00 0.00 76 1016.5
20260507031520 39 335 0.0 0.0 0.00 0.00 0.00 74 1016.5
20260507024520 42 335 0.0 0.0 0.00 0.00 0.00 67 1016.2
20260507023010 43 335 0.0 0.0 0.00 0.00 0.00 65 1016.2
20260507021526 44 335 0.0 0.0 0.00 0.00 0.00 62 1015.9
20260507020028 46 335 0.0 1.0 0.00 0.00 0.00 51 1015.6
20260507014545 47 335 0.0 4.0 0.00 0.00 0.00 47 1015.5
20260507013038 47 314 3.0 6.0 0.00 0.00 0.00 45 1015.4
20260507011531 48 313 2.0 6.0 0.00 0.00 0.00 45 1015.4
20260507010032 48 327 2.0 5.0 0.00 0.00 0.00 45 1015.4
20260507004525 49 314 2.0 12.0 0.00 0.00 0.00 43 1015.4
20260507000029 51 301 3.0 11.0 0.00 0.00 0.00 41 1015.0
20260506234527 52 304 4.0 12.0 0.00 0.00 0.00 41 1014.8
20260506233029 52 304 5.0 13.0 0.00 0.00 0.00 41 1014.6
20260506231528 53 313 5.0 15.0 0.00 0.00 0.00 40 1014.6
20260506224525 54 204 3.0 10.0 0.00 0.00 0.00 39 1014.3
20260506223026 53 325 2.0 11.0 0.00 0.00 0.00 39 1014.3
20260506221523 54 234 6.0 20.0 0.00 0.00 0.00 39 1014.2
20260506220029 55 283 2.0 10.0 0.00 0.00 0.00 39 1014.1
20260506214528 55 202 3.0 12.0 0.00 0.00 0.00 38 1013.9
20260506213027 56 327 4.0 16.0 0.00 0.00 0.00 40 1013.9
20260506211509 56 315 1.0 12.0 0.00 0.00 0.00 42 1013.8
20260506210008 56 315 3.0 15.0 0.00 0.00 0.00 37 1013.8
20260506204525 55 320 2.0 10.0 0.00 0.00 0.00 42 1013.8
20260506203023 57 317 4.0 10.0 0.00 0.00 0.00 34 1013.8
20260506201520 57 300 5.0 12.0 0.00 0.00 0.00 35 1013.9
20260506200015 57 170 4.0 14.0 0.00 0.00 0.00 34 1014.2